SCP
0 0 -0 -0 -0 -0 -0 -0 -0 -0 0 -0 -0 -0 -0 -0 0 0 -0 -0 0 0 0 0 0 0 0 -0 -0 -0 0 0
-0 -0 0 -0 -0 -0 -0 -0 -0 -0 -0 -0 -0 -0 -0 -0 -0 -0 -0 -0 0 0 0 0 0 0 0 0 -0 -0 0 0
0 0 0 -0 -0 -0 -0 -0 -0 -0 -0 -0 -0 -0 -0 -0 -0 0 -0 -0 0 0 0 0 0 0 0 0 0 0 0 0
0 0 0 0 0 -0 -0 -0 -0 -0 0 -0 -0 -0 -0 0 -0 -0 -0 -0 0 0 0 0 0 0 0 0 0 0 0 0
0 0 0 0 0 0 0 0 0 0 0 0 0 -0 0 0 -0 0 0 0 0 0 0 0 0 0 0 0 0 0 0 0
0 0 0 0 0 0 0 0 0 0 0 0 0 0 0 -0 -0 -0 -0 0 0 0 0 0 0 0 0 0 0 0 0 0
0 0 0 0 0 0 0 0 0 0 0 0 0 0 -0 -0 -0 -0 -0 0 0 0 0 0 0 0 0 0 0 0 0 0
0 0 0 0 0 0 0 0 0 0 0 0 0 -0 -0 -0 -0 -0 -0 0 0 0 0 0 0 0 0 0 0 0 0 0
0 0 0 0 0 0 0 0 0 0 0 0 -0 -0 -0 -0 -0 -0 0 0 0 0 0 0 0 0 0 0 0 0 0 0
0 0 0 0 0 0 0 0 0 0 0 0 0 -0 -0 -0 -0 -0 0 0 0 0 0 0 0 0 0 0 0 0 0 0
0 0 0 0 0 0 0 0 0 0 0 0 -0 -0 -0 -0 0 0 0 0 0 0 0 0 0 0 0 0 0 0 0 0
0 0 0 0 0 0 0 0 0 0 0 0 0 -0 -0 0 0 0 0 0 0 0 1 1 0 0 0 0 0 0 0 0
0 0 0 0 0 0 0 0 0 0 0 0 0 0 -0 0 0 0 0 0 1 1 0 0 0 0 0 0 0 0 0 0
1 1 0 1 1 1 1 1 1 0 0 0 0 0 0 0 0 0 1 1 1 0 0 0 0 0 0 0 0 0 0 0
1 0 0 2 3 3 1 1 1 0 0 1 1 1 1 1 1 1 1 1 0 0 0 0 0 0 0 0 0 0 0 0
0 0 0 1 4 4 3 2 1 1 2 3 2 2 1 1 1 0 0 0 0 0 0 0 0 0 0 0 0 0 0 0
0 0 0 0 3 4 3 2 1 2 1 1 1 0 0 0 0 0 0 0 0 0 0 0 0 0 0 0 0 0 0 0
0 0 0 -0 0 1 2 3 2 1 0 0 0 0 0 0 0 0 0 0 0 0 0 0 0 0 0 0 0 0 0 0
0 0 0 0 0 0 2 2 2 1 0 0 0 0 0 0 0 0 0 0 0 0 0 0 0 0 0 0 0 0 0 0
Wind_Speed_500mb
72 66 64 63 60 56 52 46 42 41 45 47 44 39 36 33 30 27 23 20 17 16 14 13 12 11 10 9 9 8 7 4
73 66 64 65 62 57 52 47 41 40 43 45 43 38 34 31 28 24 20 18 15 13 11 9 8 8 9 10 10 11 11 10
72 68 64 63 62 58 54 50 44 40 42 45 41 37 33 28 25 21 18 15 12 10 7 6 5 6 7 9 11 12 14 17
63 66 67 65 62 57 54 51 48 45 44 45 41 36 31 27 22 17 13 11 8 6 4 3 5 7 9 11 13 14 12 19
64 63 66 65 62 58 55 51 48 45 44 44 41 35 30 24 19 14 9 6 4 1 2 4 7 9 11 11 11 11 15 15
60 61 63 63 60 58 56 53 48 43 41 42 40 35 29 22 17 13 10 4 4 5 6 6 9 9 12 10 7 13 20 21
66 65 61 61 59 58 56 53 50 48 45 41 37 31 24 19 15 11 11 9 9 13 13 12 10 11 12 12 13 19 26 29
67 65 65 60 58 57 55 53 50 45 43 40 35 29 25 24 20 14 16 10 4 3 8 11 11 17 19 21 24 29 30 30
68 66 64 61 59 56 52 50 47 45 41 36 30 29 28 24 20 14 9 2 3 5 6 11 12 15 20 24 26 30 32 35
69 76 71 66 64 59 54 48 44 39 32 27 24 23 25 22 14 7 2 7 14 16 17 16 18 21 24 30 33 34 41 37
66 70 70 69 63 55 48 40 41 37 37 34 28 18 18 19 17 15 13 13 12 7 12 14 20 25 32 37 40 40 32 38
62 52 66 68 63 59 46 31 44 38 38 30 24 17 15 13 22 15 15 17 14 13 11 17 23 32 34 36 39 42 40 36
70 67 65 65 68 57 47 41 37 33 33 30 28 18 12 6 15 19 15 17 23 14 18 22 32 38 43 46 47 48 49 50
73 66 66 64 66 51 56 44 33 34 37 36 31 23 13 9 15 16 17 18 23 25 26 33 36 38 39 39 40 40 40 42
47 37 47 67 69 60 54 54 51 49 39 30 25 23 21 22 22 20 20 17 21 23 24 25 27 29 32 35 40 42 43 40
69 53 39 56 83 73 67 61 64 54 51 39 34 32 36 33 25 24 22 24 28 26 16 16 21 29 38 46 51 52 48 35
63 87 80 51 86 78 67 66 54 50 44 41 39 36 41 39 31 25 26 24 14 7 11 19 26 33 40 45 46 42 32 43
63 45 50 46 38 50 65 60 41 43 53 49 43 52 46 39 29 16 13 8 1 5 14 24 30 37 42 38 36 33 18 19
71 66 64 38 68 52 61 61 64 60 62 59 63 51 37 26 25 21 14 7 4 12 17 24 33 41 43 40 37 33 27 36
Wind_Direction_500mb
161 163 166 167 169 167 164 158 154 151 154 156 152 149 144 140 136 137 137 129 120 109 100 91 84 76 65 52 44 35 33 13
160 163 166 168 170 170 165 162 161 157 158 159 158 153 149 146 144 142 139 134 124 115 104 87 73 59 43 32 21 16 5 356
162 163 167 170 171 171 168 167 166 163 161 164 163 158 156 153 149 149 145 135 127 120 107 88 49 35 23 12 4 357 354 351
167 165 167 170 172 173 172 171 170 168 166 168 166 165 164 159 158 157 153 143 133 117 91 40 11 358 359 356 344 337 335 348
171 170 169 171 172 174 175 174 173 170 169 169 170 172 170 170 168 168 170 159 139 87 350 358 341 340 343 336 325 333 321 335
176 174 174 173 173 175 176 174 173 171 171 173 176 178 177 179 183 187 182 158 69 11 345 352 329 333 345 348 328 325 327 321
182 177 178 175 173 175 177 176 174 174 175 177 181 181 179 185 186 176 145 113 95 54 45 24 22 356 342 343 332 330 332 331
186 182 180 179 176 178 178 176 176 175 177 180 182 179 181 183 179 160 138 117 71 18 16 2 12 14 360 338 334 333 334 330
190 190 187 183 182 180 179 177 175 176 176 179 178 179 179 178 185 173 161 122 352 285 337 6 347 329 316 316 317 316 317 318
190 192 189 189 189 184 182 179 180 175 177 179 182 186 193 193 180 197 262 285 286 297 314 325 321 324 315 304 307 306 308 302
189 192 192 192 194 187 182 183 181 167 161 158 151 157 174 188 194 215 219 257 265 315 326 319 294 290 285 283 286 279 311 290
196 193 195 194 193 181 178 182 177 165 162 164 155 154 155 173 211 227 239 253 253 252 273 280 278 279 285 288 298 300 301 299
199 195 186 194 193 188 194 182 177 183 179 179 181 179 185 233 232 236 245 239 231 237 277 274 278 287 295 299 303 306 305 302
196 197 193 194 189 191 185 197 185 177 172 169 170 180 188 220 203 205 225 230 239 257 264 278 287 298 303 307 308 305 303 306
161 176 196 203 187 187 182 185 178 189 184 178 167 183 201 215 201 220 246 261 275 276 287 293 303 309 316 319 317 316 314 313
213 268 213 240 195 194 190 194 196 191 187 182 190 197 216 224 218 225 240 262 282 293 304 319 324 329 328 328 326 321 323 319
203 224 220 270 200 207 203 202 197 188 183 192 193 204 215 218 222 240 255 268 269 318 326 327 331 339 342 339 341 341 337 338
188 193 224 266 280 234 207 205 203 201 188 191 197 204 205 217 229 221 182 169 168 338 346 351 345 345 345 346 349 1 343 329
215 240 244 273 276 258 198 193 198 199 195 194 199 197 195 200 180 164 145 126 61 15 357 350 353 352 351 347 344 346 341 335
Wind_Speed_850mb
72 66 64 63 60 56 52 46 42 41 45 47 44 39 36 33 30 27 23 20 17 16 14 13 12 11 10 9 9 8 7 4
73 66 64 65 62 57 52 47 41 40 43 45 43 38 34 31 28 24 20 18 15 13 11 9 8 8 9 10 10 11 11 10
72 68 64 63 62 58 54 50 44 40 42 45 41 37 33 28 25 21 18 15 12 10 7 6 5 6 7 9 11 12 14 17
63 66 67 65 62 57 54 51 48 45 44 45 41 36 31 27 22 17 13 11 8 6 4 3 5 7 9 11 13 14 12 19
64 63 66 65 62 58 55 51 48 45 44 44 41 35 30 24 19 14 9 6 4 1 2 4 7 9 11 11 11 11 15 15
60 61 63 63 60 58 56 53 48 43 41 42 40 35 29 22 17 13 10 4 4 5 6 6 9 9 12 10 7 13 20 21
66 65 61 61 59 58 56 53 50 48 45 41 37 31 24 19 15 11 11 9 9 13 13 12 10 11 12 12 13 19 26 29
67 65 65 60 58 57 55 53 50 45 43 40 35 29 25 24 20 14 16 10 4 3 8 11 11 17 19 21 24 29 30 30
68 66 64 61 59 56 52 50 47 45 41 36 30 29 28 24 20 14 9 2 3 5 6 11 12 15 20 24 26 30 32 35
69 76 71 66 64 59 54 48 44 39 32 27 24 23 25 22 14 7 2 7 14 16 17 16 18 21 24 30 33 34 41 37
66 70 70 69 63 55 48 40 41 37 37 34 28 18 18 19 17 15 13 13 12 7 12 14 20 25 32 37 40 40 32 38
62 52 66 68 63 59 46 31 44 38 38 30 24 17 15 13 22 15 15 17 14 13 11 17 23 32 34 36 39 42 40 36
70 67 65 65 68 57 47 41 37 33 33 30 28 18 12 6 15 19 15 17 23 14 18 22 32 38 43 46 47 48 49 50
73 66 66 64 66 51 56 44 33 34 37 36 31 23 13 9 15 16 17 18 23 25 26 33 36 38 39 39 40 40 40 42
47 37 47 67 69 60 54 54 51 49 39 30 25 23 21 22 22 20 20 17 21 23 24 25 27 29 32 35 40 42 43 40
69 53 39 56 83 73 67 61 64 54 51 39 34 32 36 33 25 24 22 24 28 26 16 16 21 29 38 46 51 52 48 35
63 87 80 51 86 78 67 66 54 50 44 41 39 36 41 39 31 25 26 24 14 7 11 19 26 33 40 45 46 42 32 43
63 45 50 46 38 50 65 60 41 43 53 49 43 52 46 39 29 16 13 8 1 5 14 24 30 37 42 38 36 33 18 19
71 66 64 38 68 52 61 61 64 60 62 59 63 51 37 26 25 21 14 7 4 12 17 24 33 41 43 40 37 33 27 36
Wind_Direction_850mb
161 163 166 167 169 167 164 158 154 151 154 156 152 149 144 140 136 137 137 129 120 109 100 91 84 76 65 52 44 35 33 13
160 163 166 168 170 170 165 162 161 157 158 159 158 153 149 146 144 142 139 134 124 115 104 87 73 59 43 32 21 16 5 356
162 163 167 170 171 171 168 167 166 163 161 164 163 158 156 153 149 149 145 135 127 120 107 88 49 35 23 12 4 357 354 351
167 165 167 170 172 173 172 171 170 168 166 168 166 165 164 159 158 157 153 143 133 117 91 40 11 358 359 356 344 337 335 348
171 170 169 171 172 174 175 174 173 170 169 169 170 172 170 170 168 168 170 159 139 87 350 358 341 340 343 336 325 333 321 335
176 174 174 173 173 175 176 174 173 171 171 173 176 178 177 179 183 187 182 158 69 11 345 352 329 333 345 348 328 325 327 321
182 177 178 175 173 175 177 176 174 174 175 177 181 181 179 185 186 176 145 113 95 54 45 24 22 356 342 343 332 330 332 331
186 182 180 179 176 178 178 176 176 175 177 180 182 179 181 183 179 160 138 117 71 18 16 2 12 14 360 338 334 333 334 330
190 190 187 183 182 180 179 177 175 176 176 179 178 179 179 178 185 173 161 122 352 285 337 6 347 329 316 316 317 316 317 318
190 192 189 189 189 184 182 179 180 175 177 179 182 186 193 193 180 197 262 285 286 297 314 325 321 324 315 304 307 306 308 302
189 192 192 192 194 187 182 183 181 167 161 158 151 157 174 188 194 215 219 257 265 315 326 319 294 290 285 283 286 279 311 290
196 193 195 194 193 181 178 182 177 165 162 164 155 154 155 173 211 227 239 253 253 252 273 280 278 279 285 288 298 300 301 299
199 195 186 194 193 188 194 182 177 183 179 179 181 179 185 233 232 236 245 239 231 237 277 274 278 287 295 299 303 306 305 302
196 197 193 194 189 191 185 197 185 177 172 169 170 180 188 220 203 205 225 230 239 257 264 278 287 298 303 307 308 305 303 306
161 176 196 203 187 187 182 185 178 189 184 178 167 183 201 215 201 220 246 261 275 276 287 293 303 309 316 319 317 316 314 313
213 268 213 240 195 194 190 194 196 191 187 182 190 197 216 224 218 225 240 262 282 293 304 319 324 329 328 328 326 321 323 319
203 224 220 270 200 207 203 202 197 188 183 192 193 204 215 218 222 240 255 268 269 318 326 327 331 339 342 339 341 341 337 338
188 193 224 266 280 234 207 205 203 201 188 191 197 204 205 217 229 221 182 169 168 338 346 351 345 345 345 346 349 1 343 329
215 240 244 273 276 258 198 193 198 199 195 194 199 197 195 200 180 164 145 126 61 15 357 350 353 352 351 347 344 346 341 335